Key West, FL

7:34 PM EDT on September 30, 2016 (GMT -0400)
Key West International

Weather History for KEYW - February, 2013

Change the Weather History Date:

Monday, February 11, 2013

  Actual Average Record
Temperature  
Mean Temperature 77 °F 71 °F  
Max Temperature 81 °F 76 °F 85 °F (1875)
Min Temperature 73 °F 66 °F 50 °F (2000)
Degree Days  
Heating Degree Days 0 1  
Month to date heating degree days 0 11  
Since 1 July heating degree days 5 62  
Cooling Degree Days 12 6  
Month to date cooling degree days 83 66  
Year to date cooling degree days 374 231  
Growing Degree Days 24 (Base 50)    
Moisture  
Dew Point 68 °F    
Average Humidity 83    
Maximum Humidity 97    
Minimum Humidity 69    
Precipitation  
Precipitation 0.00 in 0.05 in 2.29 in (1879)
Month to date precipitation 0.00 0.56  
Year to date precipitation 0.29 2.60  
Snow  
Snow 0.00 in - - ()
Month to date snowfall 0.0  
Since 1 July snowfall 0.0  
Snow Depth 0.00 in    
Sea Level Pressure  
Sea Level Pressure 30.14 in    
Wind  
Wind Speed 14 mph (ESE)    
Max Wind Speed 21 mph    
Max Gust Speed 26 mph    
Visibility 10 miles    
Events      
T = Trace of Precipitation, MM = Missing Value Source: NWS Daily Summary

Daily Weather History Graph

Daily Weather History Graph

Search for Another Location

Airport or City:

Trip Planner

Search our weather history database for the weather conditions in past years. The results will help you decide how hot, cold, wet, or windy it might be!

Date:

Astronomy

Feb. 11, 2013 Rise Set
Actual Time 7:03 AM EST 6:19 PM EST
Civil Twilight 6:39 AM EST 6:42 PM EST
Nautical Twilight 6:13 AM EST 7:09 PM EST
Astronomical Twilight 5:46 AM EST 7:36 PM EST
Moon 7:42 AM EST (2/11) 7:56 PM EST (2/11)
Length of Visible Light 12h 02m
Length of Day
11h 16m
Waxing Crescent, 3% of the Moon is Illuminated
Feb 11
Waxing Crescent
Feb 17
First Quarter
Feb 25
Full
Mar 4
Last Quarter
Mar 11
New

Hourly Weather History & Observations

Time (EST) Temp. Heat Index Dew Point Humidity Pressure Visibility Wind Dir Wind Speed Gust Speed Precip Events Conditions
12:53 AM 69.1 °F - 64.9 °F 87% 30.16 in 10.0 mi ESE 17.3 mph 25.3 mph N/A   Clear
1:53 AM 68.0 °F - 64.9 °F 90% 30.15 in 10.0 mi ESE 16.1 mph 24.2 mph N/A   Clear
2:53 AM 68.0 °F - 64.9 °F 90% 30.13 in 10.0 mi ESE 16.1 mph - N/A   Clear
3:53 AM 69.1 °F - 66.0 °F 90% 30.13 in 10.0 mi ESE 18.4 mph - N/A   Clear
4:53 AM 70.0 °F - 66.9 °F 90% 30.12 in 10.0 mi ESE 15.0 mph - N/A   Clear
5:53 AM 70.0 °F - 66.9 °F 90% 30.14 in 10.0 mi ESE 15.0 mph - N/A   Clear
6:53 AM 70.0 °F - 68.0 °F 93% 30.15 in 10.0 mi ESE 13.8 mph - N/A   Clear
7:53 AM 70.0 °F - 68.0 °F 93% 30.16 in 10.0 mi ESE 15.0 mph - N/A   Partly Cloudy
8:53 AM 71.1 °F - 69.1 °F 93% 30.17 in 10.0 mi ESE 13.8 mph - N/A   Clear
9:53 AM 79.0 °F - 69.1 °F 72% 30.19 in 10.0 mi SE 11.5 mph - N/A   Clear
10:53 AM 79.0 °F - 68.0 °F 69% 30.19 in 10.0 mi SE 12.7 mph - N/A   Partly Cloudy
11:53 AM 80.1 °F 82.9 °F 69.1 °F 69% 30.19 in 10.0 mi SE 11.5 mph - N/A   Mostly Cloudy
12:53 PM 80.1 °F 82.9 °F 69.1 °F 69% 30.17 in 10.0 mi ESE 12.7 mph - N/A   Clear
1:53 PM 80.1 °F 82.9 °F 69.1 °F 69% 30.15 in 10.0 mi ESE 12.7 mph - N/A   Scattered Clouds
2:53 PM 79.0 °F - 69.1 °F 72% 30.12 in 10.0 mi ESE 15.0 mph - N/A   Clear
3:53 PM 79.0 °F - 69.1 °F 72% 30.11 in 10.0 mi ESE 16.1 mph - N/A   Partly Cloudy
4:53 PM 78.1 °F - 69.1 °F 74% 30.10 in 10.0 mi ESE 11.5 mph - N/A   Clear
5:53 PM 77.0 °F - 68.0 °F 74% 30.11 in 10.0 mi East 12.7 mph - N/A   Partly Cloudy
6:53 PM 75.9 °F - 68.0 °F 76% 30.10 in 10.0 mi East 12.7 mph - N/A   Partly Cloudy
7:19 PM 75.2 °F - 69.8 °F 83% 30.11 in 10.0 mi ESE 13.8 mph - N/A   Mostly Cloudy
7:41 PM 75.2 °F - 69.8 °F 83% 30.11 in 10.0 mi East 13.8 mph - N/A   Partly Cloudy
7:53 PM 75.9 °F - 69.1 °F 79% 30.11 in 10.0 mi ESE 13.8 mph - N/A   Scattered Clouds
8:53 PM 75.9 °F - 69.1 °F 79% 30.12 in 10.0 mi ESE 13.8 mph - N/A   Partly Cloudy
9:53 PM 75.9 °F - 69.1 °F 79% 30.12 in 10.0 mi ESE 13.8 mph - N/A   Clear
10:53 PM 75.9 °F - 68.0 °F 76% 30.12 in 10.0 mi ESE 12.7 mph - N/A   Partly Cloudy
11:36 PM 75.2 °F - 68.0 °F 78% 30.12 in 10.0 mi ESE 16.1 mph - N/A   Mostly Cloudy
11:53 PM 75.9 °F - 68.0 °F 76% 30.12 in 10.0 mi SE 15.0 mph - N/A   Mostly Cloudy